Aeroporto :
LOGIN :

Iscrizione | Disclaimer

   EN    FR    IT 

 










Sommario :    VFR   VFR Marginale   IFR   IFR Intensivo   IFR Molto Intensivo
Visibilità : 
Base nubi : 
>= 8 km
>= 3000ft
5 / 8 km
1000 / 3000 ft
1500m / 5 km
500 / 1000 ft
800 / 1500m
200 / 500 ft
< 800m
< 200 ft
Simboli :   Temporali  Nebbia  Neve Forte  Precipitazioni Forti  Vento > 20 kt
SIGMETs :   Varie  Temporali  Ghiacco  Turbolenza  Onda orograficha  Ceneri Vulcaniche






- Altitudine del aeroporto : 52 ft
- Codice IATA : RNN


EKRN - Bornholm Ronne

ULTIMO METAR :
  • 280150Z AUTO 33008KT 300V360 9999 NCD 10/08 Q1028

METARs OBSOLETI :
  • 280120Z AUTO 33008KT 300V360 9999 SCT084/// SCT096/// 11/08 Q1028
  • 280050Z AUTO 33009KT 290V010 9999 BKN095/// 11/08 Q1028
  • 280020Z AUTO 32009KT 300V360 9999 OVC099/// 12/08 Q1028
  • 272350Z AUTO 32010KT 9999 OVC100/// 12/07 Q1028
  • 272320Z AUTO 31011KT 9999 BKN120/// 12/07 Q1028

Previsioni scadute.



MetMap, La meteo Aeronautica in un colpo d'occhio ! - Copyright ORBIFLY Dicembre 2007 - Disclaimer

ORBIFLY MET'MAP TEAM :

Programmazione e sviluppo : Alexandra Zaïnal
Concezione : Baudouin d'Aumeries
Aiuto per la programmazione : Marc-Olivier Méhu
Supporto tecnico e logistico : Manuel Goepfert
Aiuto per la traduzione : Arnaldo La Scala

Contatto : metmap@orbifly.com




FONTI E CREDITI :

   NOAA